TimeMST,TemperatureF,Dew PointF,Humidity,Sea Level PressureIn,VisibilityMPH,Wind Direction,Wind SpeedMPH,Gust SpeedMPH,PrecipitationIn,Events,Conditions,WindDirDegrees,DateUTC
12:57 AM,61.0,23.0,23,29.88,10.0,SE,3.5,-,N/A,,Clear,140,2014-01-30 07:57:00
1:57 AM,57.9,23.0,26,29.86,10.0,Calm,Calm,-,N/A,,Clear,0,2014-01-30 08:57:00
2:57 AM,60.1,21.9,23,29.86,10.0,ESE,5.8,-,N/A,,Clear,120,2014-01-30 09:57:00
3:57 AM,60.1,23.0,24,29.84,10.0,SE,5.8,-,N/A,,Clear,130,2014-01-30 10:57:00
4:57 AM,55.9,28.0,34,29.84,10.0,NE,4.6,-,N/A,,Clear,50,2014-01-30 11:57:00
5:57 AM,55.9,30.9,39,29.83,10.0,ENE,3.5,-,N/A,,Clear,60,2014-01-30 12:57:00
6:57 AM,55.0,30.0,38,29.85,10.0,North,5.8,-,N/A,,Mostly Cloudy,10,2014-01-30 13:57:00
7:57 AM,55.9,30.0,37,29.86,10.0,NNE,3.5,-,N/A,,Mostly Cloudy,30,2014-01-30 14:57:00
8:57 AM,60.1,28.0,30,29.86,10.0,Calm,Calm,-,N/A,,Mostly Cloudy,0,2014-01-30 15:57:00
9:57 AM,66.0,27.0,23,29.88,10.0,SSE,6.9,-,N/A,,Mostly Cloudy,160,2014-01-30 16:57:00
10:57 AM,73.0,21.9,15,29.88,10.0,SSE,13.8,-,N/A,,Mostly Cloudy,160,2014-01-30 17:57:00
11:57 AM,75.0,24.1,15,29.86,10.0,South,15.0,-,N/A,,Mostly Cloudy,190,2014-01-30 18:57:00
12:57 PM,77.0,26.1,15,29.82,10.0,South,11.5,-,N/A,,Mostly Cloudy,170,2014-01-30 19:57:00
1:57 PM,79.0,24.1,13,29.78,10.0,South,11.5,-,N/A,,Mostly Cloudy,180,2014-01-30 20:57:00
2:57 PM,81.0,26.1,13,29.76,10.0,South,11.5,-,N/A,,Mostly Cloudy,180,2014-01-30 21:57:00
3:57 PM,80.1,33.1,18,29.75,10.0,South,10.4,-,N/A,,Mostly Cloudy,180,2014-01-30 22:57:00
4:57 PM,78.1,36.0,22,29.74,10.0,South,11.5,-,N/A,,Scattered Clouds,170,2014-01-30 23:57:00
5:57 PM,73.9,35.1,24,29.73,10.0,South,10.4,-,N/A,,Scattered Clouds,170,2014-01-31 00:57:00
6:57 PM,71.1,33.1,25,29.76,10.0,SSE,5.8,-,N/A,,Scattered Clouds,160,2014-01-31 01:57:00
7:57 PM,69.1,34.0,27,29.74,10.0,SSE,12.7,-,N/A,,Scattered Clouds,150,2014-01-31 02:57:00
8:57 PM,69.1,37.0,31,29.74,10.0,SSE,13.8,-,N/A,,Clear,150,2014-01-31 03:57:00
9:57 PM,66.9,37.0,33,29.74,10.0,SSE,11.5,-,N/A,,Clear,160,2014-01-31 04:57:00
10:57 PM,66.0,39.0,37,29.77,10.0,WNW,3.5,-,N/A,,Clear,290,2014-01-31 05:57:00
11:57 PM,63.0,39.9,43,29.77,10.0,Calm,Calm,-,N/A,,Clear,0,2014-01-31 06:57:00